Regional Weather Roundup
Issued by NWS Sterling, VA

Home | Current Version | Previous Version | Graphics & Text | Print | Product List | Glossary On
Versions: 1 2 3 4 5 6 7 8 9 10 11 12 13 14 15 16 17 18 19 20 21 22 23 24 25 26 27 28 29 30 31 32 33 34 35 36 37 38 39 40 41 42 43 44 45 46 47 48 49 50
000
ASUS41 KLWX 300510
RWRLWX

REGIONAL WEATHER ROUNDUP
NATIONAL WEATHER SERVICE BALTIMORE MD/WASHINGTON DC
100 AM EDT WED JUL 30 2014

Note: "FAIR" indicates few or no clouds below 12,000 feet
with no significant weather and/or obstructions to visibility.
 TC=TEMPERATURE CELSIUS

 * =Non NWS site. Station does not report precipitation (e.g. rain,
    snow, etc.), thunder, or fog.

DCZ001-MDZ009-015-VAZ040>042-051-053>054-300600-
WASHINGTON METRO
  /KDAA//-FT BELVOIR

CITY           SKY/WX    TMP DP  RH WIND       PRES   REMARKS
WASHINGTON NAT PTCLDY    65  48  54 CALM      30.04R
DULLES         CLEAR     53  48  83 CALM      30.04S
ANDREWS AFB    CLEAR     57  51  79 CALM      30.03S
QUANTICO       CLEAR     60  55  83 NW10      30.05R
COLLEGE PARK*  CLEAR     57  54  88 CALM      30.03S
LEESBURG*      CLEAR     55  54  94 CALM      30.05S
MANASSAS*      CLEAR     55  55 100 CALM      30.05S
GAITHERSBURG*  CLEAR     54  50  87 CALM      30.07S

$$

MDZ006>007-011-014-300600-
BALTIMORE METRO

CITY           SKY/WX    TMP DP  RH WIND       PRES   REMARKS
BWI AIRPORT    PTCLDY    60  51  72 CALM      30.02R
MD SCIENCE CTR   N/A     67  52  58 MISG      30.02S
MARTIN STATE   MOCLDY    61  59  94 W7        30.02F
ANNAPOLIS      MOCLDY    64  52  64 W6        30.01S
FORT MEADE*    CLEAR     54  52  94 CALM      30.05S

$$

MDZ012-015-019>023-300600-
MARYLAND EASTERN SHORE

CITY           SKY/WX    TMP DP  RH WIND       PRES   REMARKS
OCEAN CITY     CLEAR     54  52  93 CALM      30.00S
SALISBURY      NOT AVBL
BAY BRIDGE AP*   N/A     66  54  63 W8        30.01S
CAMBRIDGE*     CLEAR     59  54  82 CALM      30.00F
EASTON*        CLEAR     64  58  83 CALM      30.04S

$$

MDZ017>025-300600-
SOUTHERN MARYLAND

CITY           SKY/WX    TMP DP  RH WIND       PRES   REMARKS
PATUXENT RIVER MOCLDY    59  51  75 W5        30.01F
ST INIGOES     PTCLDY    58  52  80 CALM      30.01S
LEONARDTOWN*   CLEAR     55  50  82 CALM      30.04S

$$

MDZ003>005-300600-
NORTH CENTRAL MARYLAND

CITY           SKY/WX    TMP DP  RH WIND       PRES   REMARKS
FREDERICK*     CLEAR     54  54 100 CALM      30.06S
HAGERSTOWN APT CLEAR     58  51  78 E6        30.04R
WESTMINSTER*   CLEAR     57  55  94 CALM      30.04S

$$

MDZ501>502-300600-
WESTERN MARYLAND

CITY           SKY/WX    TMP DP  RH WIND       PRES   REMARKS
OAKLAND*       CLEAR     50  50 100 W3        30.09F
CUMBERLAND*    CLEAR     54  52  94 CALM      30.10S

$$

VAZ025>031-300600-
SHENANDOAH VALLEY

CITY           SKY/WX    TMP DP  RH WIND       PRES   REMARKS
WINCHESTER*    CLEAR     54  48  82 CALM      30.05S
STAUNTON*      PTCLDY    56  51  83 CALM      30.10R

$$

WVZ021-048>050-054>055-300600-
EASTERN WEST VIRGINIA PANHANDLE

CITY           SKY/WX    TMP DP  RH WIND       PRES   REMARKS
MARTINSBURG    CLEAR     55  49  80 S5        30.05R
PETERSBURG*    CLEAR     51  47  86 CALM      30.09S

$$

VAZ036>039-050-300600-
CENTRAL FOOTHILLS

CITY           SKY/WX    TMP DP  RH WIND       PRES   REMARKS
CHARLOTTESVILL CLOUDY    62  53  72 CALM      30.06R
ORANGE*        CLOUDY    59  52  77 CALM      30.07R

$$

VAZ055>057-300600-
NORTH AND CENTRAL PIEDMONT

CITY           SKY/WX    TMP DP  RH WIND       PRES   REMARKS
FREDERICKSBRG* CLEAR     61  55  80 CALM      30.04R
STAFFORD*      CLEAR     53  53 100 CALM      30.08S

$$

NCZ024-NYZ072-PAZ021-071-VAZ022-071-300600-
OTHER REGIONAL OBSERVATIONS

CITY           SKY/WX    TMP DP  RH WIND       PRES   REMARKS
NEW YORK CITY  PTCLDY    67  52  58 W3        30.01R
PHILADELPHIA   CLOUDY    68  53  58 NW6       30.00S
PITTSBURGH     CLEAR     56  51  84 CALM      30.04S
ROANOKE        MOCLDY    62  52  69 NW5       30.09S
RICHMOND       CLOUDY    68  53  58 CALM      30.04R
RALEIGH        PTCLDY    68  60  75 SE3       30.00S

$$

ANZ530>537-300600-
MARINE OBSERVATIONS

STATION/POSITION TIME  TEMP    WIND        PRES
                       AIR SEA DIR/SP/G
                 (UTC) (F)     (DEG/KT/KT) (MB)
THOMAS PT LIGHT  0500   67 77  310/ 12/ 13 1016.7S
BALT KEY BRIDGE  0500   68     280/  8/ 10 1016.2R
COVE POINT       0500   67     320/  8/  9 1016.2S
LEWISETTA        0500   70 77  350/  5/  8 1016.2F
SOLOMONS ISLAND  0500      80                N/A
PINEY POINT      0500          360/  8/  9   N/A

$$




USA.gov is the U.S. government's official web portal to all federal, state and local government web resources and services.